Weather Roundup
Issued by NWS

Home | Current Version | Previous Version | Graphics & Text | Print | Product List | Glossary On
Versions: 1 2 3 4 5 6 7 8 9 10 11 12 13 14 15 16 17 18 19 20 21 22 23 24 25 26 27 28 29 30 31 32 33 34 35 36 37 38 39 40 41 42 43 44 45 46 47 48 49 50
000
NZUS93 KARX 311710
HRRWXR

CURRENT HOURLY OBSERVATIONS ACROSS
MUCH OF THE UPPER MISSISSIPPI VALLEY
NATIONAL WEATHER SERVICE LA CROSSE WI
1200 PM CDT THU JUL 31 2014


...SOUTHEAST MINNESOTA...


CITY           SKY/WX    TMP DP  RH WIND       PRES   REMARKS
ROCHESTER      SUNNY     77  55  46 NW8       30.08S
ROCHESTER/MAYO FAIR      75  50  41 W13       30.06F
WINONA         SUNNY     77  59  53 W5        30.04S
AUSTIN         SUNNY     75  54  46 NW6       30.08S
ALBERT LEA     SUNNY     79  54  41 W5        30.08S
DODGE CENTER   MOSUNNY   75  57  53 W12       30.07F
PRESTON        SUNNY     74  60  63 NW10      30.08S
OWATONNA       SUNNY     77  55  47 W3        30.07S
FARIBAULT      SUNNY     81  52  36 SW7       30.06S
$$

...ELSEWHERE IN MINNESOTA...


CITY           SKY/WX    TMP DP  RH WIND       PRES   REMARKS
MINNEAPOLIS    MOSUNNY   79  54  41 W8        30.04S
INTNL FALLS    SUNNY     75  54  47 N12       30.00S
DULUTH         SUNNY     76  56  49 NW6       29.99F
RED WING       SUNNY     79  55  44 W8        30.03S
REDWOOD FALLS  SUNNY     79  55  43 W5        30.06F
MANKATO        SUNNY     75  55  50 W7        30.07S
WORTHINGTON    SUNNY     73  54  49 W3        30.10F
FAIRMONT       PTSUNNY   79  50  36 W5        30.08S
$$

...SOUTHWEST WISCONSIN...


CITY           SKY/WX    TMP DP  RH WIND       PRES   REMARKS
LA CROSSE      SUNNY     79  60  52 VRB5      30.03S
PRAIRIE DU CHI SUNNY     79  56  44 W8        30.05S
BOSCOBEL       SUNNY     81  57  43 W7        30.05S
LONE ROCK      SUNNY     82  62  50 W8        30.04S
PLATTEVILLE    MOSUNNY   77  59  53 W12       30.08R
FORT MC COY    SUNNY     76  59  53 W9        30.04S
CAMP DOUGLAS     N/A     77  64  65 W10       30.02F
VIROQUA        FAIR      75  61  61 W6        30.06F
WIS DELLS      MOSUNNY   79  55  42 W10G20    30.03S
$$

...ELSEWHERE IN WISCONSIN...


CITY           SKY/WX    TMP DP  RH WIND       PRES   REMARKS
MILWAUKEE      MOSUNNY   79  59  50 W10G17    30.01S
MADISON        MOSUNNY   79  59  50 NW12      30.03S
GREEN BAY      SUNNY     76  63  64 W7        29.98S
EAU CLAIRE     NOT AVBL
BLACK RVR FLS  FAIR      77  58  52 W12       30.02S
MEDFORD        MOSUNNY   71  62  72 W7        30.01F
WAUSAU         PTSUNNY   75  59  57 W10       29.99S
WIS RAPIDS     MOSUNNY   77  62  59 W12       30.02S
MARSHFIELD     PTSUNNY   75  62  64 W12       30.01S
RICE LAKE      CLOUDY    74  60  60 W9        30.03S
$$

...NORTHEAST IOWA...


CITY           SKY/WX    TMP DP  RH WIND       PRES   REMARKS
WATERLOO       SUNNY     78  56  46 W10       30.07F
DUBUQUE        PTSUNNY   76  60  57 W10       30.08S
DECORAH        MOSUNNY   75  59  57 NW8       30.07S
MASON CITY     MOSUNNY   77  58  51 W6        30.10S
CHARLES CITY   PTSUNNY   75  57  53 NW8       30.09S
OELWEIN        SUNNY     75  59  57 NW8G16    30.09F
$$

...ELSEWHERE IN IOWA...


CITY           SKY/WX    TMP DP  RH WIND       PRES   REMARKS
DES MOINES     MOSUNNY   80  57  45 VRB3      30.10S
IOWA CITY      SUNNY     78  62  57 W7        30.10S
FORT DODGE     MOSUNNY   77  59  53 W5        30.11S
MARSHALLTOWN   SUNNY     78  60  53 NW5       30.09S
CEDAR RAPIDS   MOSUNNY   78  61  55 W9        30.08S
$$

...NORTHERN ILLINOIS...


CITY           SKY/WX    TMP DP  RH WIND       PRES   REMARKS
CHICAGO-OHARE  MOSUNNY   81  56  42 W14G20    30.03F
DUPAGE         SUNNY     80  60  50 SW12      30.04F
CHICAGO-MIDWAY MOSUNNY   82  59  45 W13G20    30.04F
MOLINE         SUNNY     80  60  50 W9        30.08S
ROCKFORD       MOSUNNY   79  59  50 W13G18    30.07S
STERLING       SUNNY     81  63  54 NW9       30.08S
PEORIA         MOSUNNY   81  61  50 W5        30.09S
$$

NOTE: "FAIR" INDICATES FEW OR NO CLOUDS BELOW 12,000 FEET WITH NO
SIGNIFICANT WEATHER AND/OR OBSTRUCTIONS TO VISIBILITY. WIND
SPEEDS ARE IN MILES-PER-HOUR.



USA.gov is the U.S. government's official web portal to all federal, state and local government web resources and services.